M I D A S
Marine Information and Data Acquisition System
Tripno 1856 of the Zeeleeuw from 2010-04-07 09:01:31 to 2010-04-07 14:18:54
Back to CruiseResearch ActivitiesStationsMapUnderway DataData graphs

EquipmentUnitsComments
TimeDGPSUTC
LatitudeDGPSDM.mWGS84
LongitudeDGPSDM.mWGS84
SpeedMeteo Stationm/sRelative wind speed
DirectionMeteo StationdegRelative wind direction
TemperatureMeteo Stationdeg CelciusAir temperature
PressureMeteo StationPaAtmospheric pressure
HumidityMeteo Station%Relative humidity
Missing or incorrect values are displayed as -999
Metereological data collected by the RV Zeeleeuw from 2010-04-07 06:36:08 to 2010-04-07 14:20:56
Time Latitude Longitude Speed Direction Temperature Pressure Humidity
2010-04-07 06:37 51°13.666 2°55.961 0.9 341 8.7 101440 37
2010-04-07 06:38 51°13.666 2°55.961 1.8 351 8.7 101450 37
2010-04-07 06:39 51°13.667 2°55.961 -999 339 8.7 101450 38
2010-04-07 06:40 51°13.664 2°55.96 0.1 283 8.8 101450 38
2010-04-07 06:41 51°13.662 2°55.96 -999 343 8.8 101450 38
2010-04-07 06:42 51°13.662 2°55.96 -999 343 8.8 101450 38
2010-04-07 06:43 51°13.662 2°55.96 0.1 351 8.8 101450 38
2010-04-07 06:44 51°13.662 2°55.961 -999 346 8.9 101450 38
2010-04-07 06:45 51°13.66 2°55.959 -999 348 8.9 101450 38
2010-04-07 06:46 51°13.66 2°55.96 1.6 346 8.9 101450 37
2010-04-07 06:47 51°13.658 2°55.961 -999 283 8.9 101450 38
2010-04-07 06:48 51°13.659 2°55.961 -999 -999 9 101450 38
2010-04-07 06:49 51°13.658 2°55.961 -999 340 9 101450 38
2010-04-07 06:50 51°13.662 2°55.962 -999 283 9 101450 38
2010-04-07 06:51 51°13.664 2°55.961 1.3 355 9 101450 38
2010-04-07 06:52 51°13.662 2°55.96 -999 283 9.1 101450 38
2010-04-07 06:53 51°13.662 2°55.96 1 342 9.1 101450 38
2010-04-07 06:54 51°13.661 2°55.959 -999 283 9.1 101450 38
2010-04-07 06:55 51°13.661 2°55.959 -999 337 9.1 101450 38
2010-04-07 06:56 51°13.661 2°55.959 -999 283 9.2 101450 38
2010-04-07 06:57 51°13.661 2°55.959 1.5 332 9.2 101450 38
2010-04-07 06:58 51°13.661 2°55.96 -999 283 9.3 101450 38
2010-04-07 06:59 51°13.661 2°55.96 -999 342 9.3 101450 38
2010-04-07 07:00 51°13.661 2°55.96 -999 352 9.4 101450 38
2010-04-07 07:01 51°13.662 2°55.96 -999 343 9.4 101460 38
2010-04-07 07:02 51°13.661 2°55.96 -999 350 9.4 101460 38
2010-04-07 07:03 51°13.662 2°55.959 -999 352 9.4 101460 38
2010-04-07 07:52 51°13.662 2°55.961 2.2 350 11.5 101480 38
2010-04-07 07:53 51°13.662 2°55.961 1.8 354 11.5 101480 38
2010-04-07 07:54 51°13.662 2°55.961 1.1 355 11.5 101480 38
2010-04-07 07:55 51°13.662 2°55.961 1.8 351 11.5 101480 38
2010-04-07 07:56 51°13.661 2°55.961 0.1 350 11.5 101480 38
2010-04-07 07:57 51°13.662 2°55.961 1.4 4 11.5 101480 36
2010-04-07 07:58 51°13.662 2°55.961 0.1 351 11.5 101480 38
2010-04-07 07:59 51°13.662 2°55.961 2.5 2 11.6 101490 39
2010-04-07 08:00 51°13.662 2°55.961 1.8 3 11.5 101480 39
2010-04-07 08:01 51°13.662 2°55.961 2.4 348 11.6 101480 39
2010-04-07 08:02 51°13.662 2°55.961 2.4 349 11.5 101480 37
2010-04-07 08:03 51°13.662 2°55.961 2.1 347 11.5 101480 38
2010-04-07 08:04 51°13.662 2°55.961 1.9 5 11.6 101480 38
2010-04-07 08:05 51°13.662 2°55.961 1.8 353 11.6 101480 38
2010-04-07 08:06 51°13.662 2°55.96 1.9 359 11.7 101490 38
2010-04-07 08:07 51°13.66 2°55.962 1 2 11.6 101480 38
2010-04-07 08:08 51°13.66 2°55.962 1.2 357 11.7 101480 38
2010-04-07 08:09 51°13.661 2°55.961 0.1 359 11.8 101480 39
2010-04-07 08:10 51°13.661 2°55.961 1.8 1 11.8 101480 38
2010-04-07 08:11 51°13.662 2°55.96 1.5 -999 11.9 101490 38
2010-04-07 08:12 51°13.662 2°55.96 1.5 352 12 101480 39
2010-04-07 08:13 51°13.662 2°55.96 0.1 352 12 101480 38
2010-04-07 08:14 51°13.662 2°55.96 1.6 359 12.1 101490 39
2010-04-07 08:15 51°13.662 2°55.961 1.4 353 12.2 101490 38
2010-04-07 08:16 51°13.662 2°55.962 1.3 352 12.2 101490 39
2010-04-07 08:17 51°13.661 2°55.962 2 14 12.3 101490 38
2010-04-07 08:18 51°13.661 2°55.962 2 10 12.4 101490 39
2010-04-07 08:19 51°13.662 2°55.956 0.1 354 12.4 101500 38
2010-04-07 08:20 51°13.661 2°55.959 -999 6 12.5 101500 39
2010-04-07 08:21 51°13.661 2°55.959 0.9 347 12.6 101500 38
2010-04-07 08:22 51°13.662 2°55.959 1.8 10 12.6 101500 39
2010-04-07 08:23 51°13.662 2°55.959 1.9 355 12.7 101500 38
2010-04-07 08:24 51°13.662 2°55.959 1 360 12.7 101510 39
2010-04-07 08:25 51°13.66 2°55.961 2.7 353 12.7 101500 39
2010-04-07 08:26 51°13.66 2°55.961 0.9 3 12.7 101500 39
2010-04-07 08:27 51°13.662 2°55.96 1.7 350 12.8 101500 39
2010-04-07 08:28 51°13.663 2°55.958 2.2 349 12.8 101510 38
2010-04-07 08:29 51°13.664 2°55.958 0.1 353 12.8 101510 38
2010-04-07 08:30 51°13.663 2°55.958 1.9 356 12.9 101510 39
2010-04-07 08:31 51°13.665 2°55.956 -999 359 12.9 101510 39
2010-04-07 08:32 51°13.668 2°55.959 -999 -999 13 101510 39
2010-04-07 08:33 51°13.671 2°55.959 2.1 24 13.1 101510 39
2010-04-07 08:34 51°13.669 2°55.959 1.6 18 13.1 101510 39
2010-04-07 08:35 51°13.666 2°55.961 2.2 6 13.1 101510 38
2010-04-07 08:36 51°13.664 2°55.961 0.1 19 13.2 101510 38
2010-04-07 08:37 51°13.665 2°55.961 1.4 10 13.2 101510 37
2010-04-07 08:38 51°13.666 2°55.961 2.2 20 13.2 101510 39
2010-04-07 08:39 51°13.666 2°55.96 1.8 12 13.3 101510 39
2010-04-07 08:40 51°13.665 2°55.959 2.9 15 13.4 101510 38
2010-04-07 08:41 51°13.664 2°55.959 0.1 357 13.4 101510 38
2010-04-07 08:42 51°13.664 2°55.959 -999 8 13.5 101510 38
2010-04-07 08:43 51°13.664 2°55.958 -999 1 13.5 101510 39
2010-04-07 08:44 51°13.664 2°55.958 1.9 356 13.5 101510 38
2010-04-07 08:45 51°13.662 2°55.958 0.1 -999 13.6 101510 38
2010-04-07 08:46 51°13.662 2°55.959 1.8 13 13.6 101510 38
2010-04-07 08:47 51°13.662 2°55.958 -999 355 13.7 101510 39
2010-04-07 08:48 51°13.662 2°55.959 -999 7 13.7 101510 39
2010-04-07 08:49 51°13.662 2°55.96 -999 1 13.8 101510 39
2010-04-07 08:50 51°13.662 2°55.96 -999 357 13.9 101510 39
2010-04-07 08:51 51°13.662 2°55.961 0.4 7 13.9 101510 39
2010-04-07 08:52 51°13.661 2°55.961 1.4 26 13.9 101510 39
2010-04-07 08:53 51°13.663 2°55.961 2.6 8 13.9 101510 39
2010-04-07 08:54 51°13.663 2°55.962 1.7 12 13.9 101510 38
2010-04-07 08:55 51°13.661 2°55.962 -999 16 13.9 101510 39
2010-04-07 08:56 51°13.661 2°55.962 0.3 8 14 101510 39
2010-04-07 08:57 51°13.661 2°55.955 2.3 28 14 101510 38
2010-04-07 08:58 51°13.685 2°55.878 1.5 32 14 101510 38
2010-04-07 08:59 51°13.701 2°55.772 2.2 36 14 101510 39
2010-04-07 09:00 51°13.704 2°55.732 0.1 34 14 101510 38
2010-04-07 09:01 51°13.746 2°55.718 2 26 14.1 101520 39
2010-04-07 09:02 51°13.866 2°55.615 2 317 14.2 101520 39
2010-04-07 09:03 51°14.015 2°55.505 2.5 323 14.3 101520 38
2010-04-07 09:04 51°14.173 2°55.384 2 329 14.3 101520 39
2010-04-07 09:05 51°14.318 2°55.245 3.2 316 14.3 101510 39
2010-04-07 09:06 51°14.473 2°55.074 6.2 322 14.4 101500 38
2010-04-07 09:07 51°14.642 2°54.87 5.8 22 14.2 101500 38
2010-04-07 09:08 51°14.824 2°54.647 6.1 28 14.2 101500 39
2010-04-07 09:09 51°15.009 2°54.43 7.5 322 14 101500 40
2010-04-07 09:10 51°15.194 2°54.216 7.1 319 13.8 101510 40
2010-04-07 09:11 51°15.377 2°53.984 6.4 317 13.6 101500 39
2010-04-07 09:12 51°15.556 2°53.763 6.6 320 13.3 101510 41
2010-04-07 09:13 51°15.744 2°53.553 6.1 316 12.9 101500 41
2010-04-07 09:14 51°15.956 2°53.411 5.1 315 12.7 101510 41
2010-04-07 09:15 51°16.171 2°53.279 3.9 26 12.9 101510 42
2010-04-07 09:16 51°16.385 2°53.146 4.2 317 12.9 101510 41
2010-04-07 09:17 51°16.6 2°53.01 4.4 318 12.7 101510 41
2010-04-07 09:18 51°16.814 2°52.878 5.1 317 12.6 101520 41
2010-04-07 09:19 51°17.03 2°52.754 4.9 317 12.5 101520 41
2010-04-07 09:20 51°17.259 2°52.671 3.1 319 12.4 101520 42
2010-04-07 09:21 51°17.485 2°52.626 3.7 318 12.3 101530 42
2010-04-07 09:22 51°17.72 2°52.584 4.6 325 12.2 101530 42
2010-04-07 09:23 51°17.948 2°52.588 3.1 324 12 101530 42
2010-04-07 09:24 51°18.182 2°52.591 2.9 321 11.8 101530 42
2010-04-07 09:25 51°18.415 2°52.595 2.9 321 11.8 101530 41
2010-04-07 09:26 51°18.648 2°52.593 2.6 320 11.8 101530 42
2010-04-07 09:27 51°18.881 2°52.591 2.6 320 11.8 101530 41
2010-04-07 09:28 51°19.114 2°52.586 3.2 316 11.8 101530 42
2010-04-07 09:29 51°19.347 2°52.582 2.6 23 11.8 101530 41
2010-04-07 09:30 51°19.58 2°52.58 2.6 21 11.7 101530 42
2010-04-07 09:31 51°19.813 2°52.578 2.7 20 11.6 101530 41
2010-04-07 09:32 51°20.044 2°52.605 2 315 11.5 101530 41
2010-04-07 09:33 51°20.275 2°52.65 3.1 318 11.5 101530 42
2010-04-07 09:34 51°20.504 2°52.716 2 322 11.5 101530 42
2010-04-07 09:35 51°20.727 2°52.829 1 325 11.4 101530 42
2010-04-07 09:36 51°20.949 2°52.94 2.1 326 11.3 101530 43
2010-04-07 09:37 51°21.176 2°53.051 2.3 326 -999 -999 -999
2010-04-07 09:38 51°21.396 2°53.157 2.6 326 11.1 101530 42
2010-04-07 09:39 51°21.62 2°53.265 3 326 11 101530 42
2010-04-07 09:40 51°21.846 2°53.367 3.5 328 10.8 101530 42
2010-04-07 09:41 51°22.076 2°53.445 3.9 325 10.7 101530 42
2010-04-07 09:42 51°22.307 2°53.523 3.9 327 10.6 101530 42
2010-04-07 09:43 51°22.535 2°53.598 2.9 328 10.6 101530 42
2010-04-07 09:44 51°22.763 2°53.677 3 327 10.6 101540 42
2010-04-07 09:45 51°22.991 2°53.758 3.5 327 10.5 101530 42
2010-04-07 09:46 51°23.218 2°53.837 2.9 326 10.5 101540 42
2010-04-07 09:47 51°23.446 2°53.913 3.6 325 10.5 101540 42
2010-04-07 09:48 51°23.674 2°53.98 3.2 321 10.5 101540 42
2010-04-07 09:49 51°23.904 2°54.027 3.3 321 10.6 101540 43
2010-04-07 09:50 51°24.135 2°54.07 3.1 320 10.7 101540 43
2010-04-07 09:51 51°24.367 2°54.117 3.4 318 10.6 101540 43
2010-04-07 09:52 51°24.599 2°54.162 2.7 320 10.6 101540 42
2010-04-07 09:53 51°24.832 2°54.206 2.6 319 10.7 101540 43
2010-04-07 09:54 51°25.065 2°54.253 2.9 320 10.7 101540 43
2010-04-07 09:55 51°25.297 2°54.3 3.1 322 10.6 101540 43
2010-04-07 09:56 51°25.529 2°54.345 3.7 323 10.5 101540 43
2010-04-07 09:57 51°25.762 2°54.393 3.4 323 10.4 101540 43
2010-04-07 09:58 51°25.994 2°54.443 3.5 324 10.3 101540 42
2010-04-07 09:59 51°26.225 2°54.49 3.3 323 10.2 101540 42
2010-04-07 10:00 51°26.458 2°54.542 3.1 322 10.2 101550 43
2010-04-07 10:01 51°26.683 2°54.596 3.5 321 10.3 101540 43
2010-04-07 10:02 51°26.913 2°54.651 3.1 322 10.3 101540 42
2010-04-07 10:03 51°27.143 2°54.692 3.4 320 10.3 101540 43
2010-04-07 10:04 51°27.373 2°54.734 2.7 316 10.3 101540 43
2010-04-07 10:05 51°27.604 2°54.768 3 316 10.4 101540 42
2010-04-07 10:06 51°27.835 2°54.801 3.4 25 10.4 101550 42
2010-04-07 10:07 51°28.067 2°54.831 4 19 10.4 101540 42
2010-04-07 10:08 51°28.299 2°54.86 4 28 10.4 101540 42
2010-04-07 10:09 51°28.53 2°54.887 3.9 26 10.3 101540 41
2010-04-07 10:10 51°28.762 2°54.917 5.9 321 10.2 101540 42
2010-04-07 10:11 51°28.993 2°54.948 5.5 318 10.2 101540 43
2010-04-07 10:12 51°29.224 2°54.98 4.4 317 10.1 101530 42
2010-04-07 10:13 51°29.456 2°55.012 5.3 315 10 101530 43
2010-04-07 10:14 51°29.688 2°55.043 4.8 316 10 101530 42
2010-04-07 10:15 51°29.918 2°55.104 3.7 319 10 101530 43
2010-04-07 10:16 51°30.126 2°55.169 4.2 309 9.9 101530 43
2010-04-07 10:17 51°30.372 2°55.244 5.4 319 9.9 101530 42
2010-04-07 10:18 51°30.694 2°55.336 4.1 305 9.9 101530 43
2010-04-07 10:19 51°30.925 2°55.399 3.9 306 9.9 101530 43
2010-04-07 10:20 51°31.149 2°55.456 3.9 305 9.8 101530 43
2010-04-07 10:21 51°31.383 2°55.515 4.3 303 9.8 101530 43
2010-04-07 10:22 51°31.612 2°55.573 4.3 308 9.8 101530 42
2010-04-07 10:23 51°31.843 2°55.63 4.6 303 9.8 101530 43
2010-04-07 10:24 51°32.056 2°55.673 3.3 307 9.7 101540 42
2010-04-07 10:25 51°32.255 2°55.685 3.3 307 9.7 101530 43
2010-04-07 10:26 51°32.44 2°55.681 2.8 304 9.7 101530 42
2010-04-07 10:27 51°32.551 2°55.633 2.2 303 9.6 101540 42
2010-04-07 10:28 51°32.6 2°55.589 0.8 309 9.6 101540 43
2010-04-07 10:29 51°32.623 2°55.574 -999 306 9.7 101540 43
2010-04-07 10:30 51°32.642 2°55.561 -999 305 9.7 101540 43
2010-04-07 10:31 51°32.659 2°55.546 0.4 309 9.8 101540 42
2010-04-07 10:32 51°32.673 2°55.53 0.1 306 9.8 101540 42
2010-04-07 10:33 51°32.684 2°55.515 -999 306 9.8 101540 42
2010-04-07 10:34 51°32.695 2°55.501 -999 306 9.9 101540 42
2010-04-07 10:35 51°32.704 2°55.488 -999 306 9.9 101540 42
2010-04-07 10:36 51°32.712 2°55.476 -999 306 10 101540 42
2010-04-07 10:37 51°32.719 2°55.465 -999 306 10 101540 42
2010-04-07 10:38 51°32.726 2°55.456 1.8 308 9.9 101540 41
2010-04-07 10:39 51°32.733 2°55.448 2 310 9.9 101540 42
2010-04-07 10:40 51°32.739 2°55.44 2.4 310 9.9 101540 42
2010-04-07 10:41 51°32.746 2°55.434 2.3 306 9.9 101540 41
2010-04-07 10:42 51°32.752 2°55.428 2.6 308 9.9 101540 42
2010-04-07 10:43 51°32.759 2°55.424 2.4 301 9.8 101540 41
2010-04-07 10:44 51°32.764 2°55.42 1.8 308 9.8 101540 40
2010-04-07 10:45 51°32.77 2°55.416 0.2 309 9.8 101540 41
2010-04-07 10:46 51°32.775 2°55.413 1.6 309 9.7 101540 40
2010-04-07 10:47 51°32.78 2°55.41 1.7 307 9.7 101540 41
2010-04-07 10:48 51°32.787 2°55.405 1.9 301 9.7 101540 41
2010-04-07 10:49 51°32.788 2°55.402 1.9 60 9.7 101550 41
2010-04-07 10:50 51°32.779 2°55.399 1.4 50 9.7 101550 42
2010-04-07 10:51 51°32.765 2°55.391 1.5 52 9.6 101550 42
2010-04-07 10:52 51°32.753 2°55.381 1.5 57 9.5 101550 41
2010-04-07 10:53 51°32.743 2°55.37 1.5 54 9.5 101550 41
2010-04-07 10:54 51°32.735 2°55.36 1.3 54 9.5 101540 41
2010-04-07 10:55 51°32.727 2°55.349 1.5 52 9.5 101550 42
2010-04-07 10:56 51°32.722 2°55.339 1.4 52 9.4 101550 41
2010-04-07 10:57 51°32.717 2°55.329 1.3 54 9.4 101550 41
2010-04-07 10:58 51°32.713 2°55.319 1 58 9.4 101550 42
2010-04-07 10:59 51°32.71 2°55.309 0.6 51 9.4 101550 41
2010-04-07 11:00 51°32.707 2°55.299 -999 54 9.4 101550 42
2010-04-07 11:01 51°32.705 2°55.289 -999 54 9.4 101550 42
2010-04-07 11:02 51°32.703 2°55.28 1 49 9.4 101550 41
2010-04-07 11:03 51°32.7 2°55.271 0.2 55 9.4 101550 42
2010-04-07 11:04 51°32.698 2°55.262 0.8 51 9.4 101550 42
2010-04-07 11:05 51°32.695 2°55.254 0.7 57 9.4 101550 41
2010-04-07 11:06 51°32.693 2°55.246 1.1 51 9.4 101560 42
2010-04-07 11:07 51°32.69 2°55.239 1.2 54 9.4 101560 43
2010-04-07 11:08 51°32.688 2°55.23 1.5 49 9.4 101560 43
2010-04-07 11:09 51°32.685 2°55.223 1.2 51 9.4 101560 43
2010-04-07 11:10 51°32.683 2°55.216 1.2 55 9.4 101560 43
2010-04-07 11:11 51°32.68 2°55.209 1.1 52 9.4 101560 44
2010-04-07 11:12 51°32.678 2°55.201 2.1 52 9.3 101560 42
2010-04-07 11:13 51°32.678 2°55.195 2.1 52 9.3 101560 44
2010-04-07 11:14 51°32.687 2°55.191 1.1 311 9.4 101560 44
2010-04-07 11:15 51°32.716 2°55.177 2.1 301 9.4 101560 44
2010-04-07 11:16 51°32.751 2°55.138 2.9 307 9.4 101560 45
2010-04-07 11:17 51°32.771 2°55.071 3.1 301 9.5 101560 44
2010-04-07 11:18 51°32.762 2°55.006 4.4 337 9.4 101550 42
2010-04-07 11:19 51°32.729 2°54.965 3.6 357 9.3 101560 43
2010-04-07 11:20 51°32.695 2°54.972 2.8 22 9.2 101550 44
2010-04-07 11:21 51°32.676 2°55.014 2 52 9.1 101570 44
2010-04-07 11:22 51°32.678 2°55.072 2 58 9.1 101560 44
2010-04-07 11:23 51°32.687 2°55.121 -999 54 9.2 101570 44
2010-04-07 11:24 51°32.7 2°55.154 2 57 9.5 101570 45
2010-04-07 11:25 51°32.712 2°55.176 2.4 59 9.6 101570 43
2010-04-07 11:26 51°32.724 2°55.19 2.3 51 9.6 101570 41
2010-04-07 11:27 51°32.734 2°55.198 2.6 58 9.6 101570 43
2010-04-07 11:28 51°32.743 2°55.202 2.3 53 9.6 101570 42
2010-04-07 11:29 51°32.752 2°55.201 2.2 57 9.5 101570 43
2010-04-07 11:30 51°32.76 2°55.199 2.2 58 9.5 101570 43
2010-04-07 11:31 51°32.766 2°55.193 2.3 304 9.6 101570 44
2010-04-07 11:32 51°32.771 2°55.185 2.1 309 9.6 101570 43
2010-04-07 11:33 51°32.776 2°55.176 2 305 9.6 101570 42
2010-04-07 11:34 51°32.779 2°55.166 1.9 308 9.6 101570 42
2010-04-07 11:35 51°32.781 2°55.155 2.5 309 9.6 101570 44
2010-04-07 11:36 51°32.782 2°55.144 2.1 302 9.6 101570 44
2010-04-07 11:37 51°32.783 2°55.133 2.2 310 9.7 101570 44
2010-04-07 11:38 51°32.783 2°55.122 2.6 307 9.8 101580 43
2010-04-07 11:39 51°32.783 2°55.112 2.3 304 9.8 101570 43
2010-04-07 11:40 51°32.782 2°55.103 2.7 310 9.9 101580 43
2010-04-07 11:41 51°32.781 2°55.094 2.4 308 10 101580 42
2010-04-07 11:42 51°32.779 2°55.085 2.3 307 10 101570 41
2010-04-07 11:43 51°32.777 2°55.077 2.2 310 10.1 101570 42
2010-04-07 11:44 51°32.774 2°55.069 2.5 302 10.1 101580 43
2010-04-07 11:45 51°32.772 2°55.061 2.4 308 10.2 101580 42
2010-04-07 11:46 51°32.769 2°55.052 2.1 308 10.2 101580 43
2010-04-07 11:47 51°32.766 2°55.043 1.5 308 10.2 101580 41
2010-04-07 11:48 51°32.763 2°55.034 1.8 302 10.1 101590 42
2010-04-07 11:49 51°32.759 2°55.025 1.1 303 10 101580 42
2010-04-07 11:50 51°32.756 2°55.016 2.9 309 9.8 101590 41
2010-04-07 11:51 51°32.753 2°55.008 1.8 308 9.7 101590 41
2010-04-07 11:52 51°32.751 2°55.001 1.1 311 9.7 101590 43
2010-04-07 11:53 51°32.761 2°54.989 3 301 9.7 101590 43
2010-04-07 11:54 51°32.799 2°54.961 3.8 304 9.7 101590 43
2010-04-07 11:55 51°32.859 2°54.888 3.9 310 9.7 101580 42
2010-04-07 11:56 51°32.9 2°54.803 4.2 302 9.6 101580 41
2010-04-07 11:57 51°32.918 2°54.729 3.9 302 9.6 101590 43
2010-04-07 11:58 51°32.926 2°54.666 3.5 304 9.6 101590 40
2010-04-07 11:59 51°32.93 2°54.614 2.8 302 9.6 101590 43
2010-04-07 12:00 51°32.932 2°54.568 3.1 303 9.6 101590 42
2010-04-07 12:01 51°32.933 2°54.529 3.4 307 9.7 101590 41
2010-04-07 12:02 51°32.937 2°54.474 3.7 305 9.7 101590 42
2010-04-07 12:03 51°32.948 2°54.407 3.5 301 9.7 101580 41
2010-04-07 12:04 51°32.968 2°54.327 4.5 310 9.7 101590 41
2010-04-07 12:05 51°32.99 2°54.211 6.1 324 9.8 101580 42
2010-04-07 12:06 51°32.956 2°54.044 7.2 335 9.8 101590 41
2010-04-07 12:07 51°32.852 2°53.87 8.2 339 9.7 101580 41
2010-04-07 12:08 51°32.71 2°53.678 8.2 336 9.7 101580 42
2010-04-07 12:09 51°32.562 2°53.451 7.6 335 9.6 101580 43
2010-04-07 12:10 51°32.43 2°53.198 7.6 334 9.6 101580 43
2010-04-07 12:11 51°32.287 2°52.957 8 335 9.5 101580 42
2010-04-07 12:12 51°32.158 2°52.731 6.5 335 9.4 101580 43
2010-04-07 12:13 51°32.071 2°52.581 5.8 336 9.4 101590 42
2010-04-07 12:14 51°32.004 2°52.468 6.4 340 9.4 101590 42
2010-04-07 12:15 51°31.946 2°52.376 4.9 339 9.4 101590 42
2010-04-07 12:16 51°31.896 2°52.286 4.9 341 9.4 101580 42
2010-04-07 12:17 51°31.841 2°52.209 4.2 345 9.4 101580 42
2010-04-07 12:18 51°31.814 2°52.16 3.1 332 9.3 101590 42
2010-04-07 12:19 51°31.799 2°52.119 3.1 330 9.4 101590 42
2010-04-07 12:20 51°31.794 2°52.108 2.2 285 9.5 101590 42
2010-04-07 12:22 51°31.797 2°52.117 1.9 333 9.6 101590 44
2010-04-07 12:23 51°31.799 2°52.126 1.5 331 9.7 101590 42
2010-04-07 12:24 51°31.799 2°52.125 2 332 9.7 101590 43
2010-04-07 12:25 51°31.795 2°52.114 2.1 337 9.8 101590 43
2010-04-07 12:26 51°31.795 2°52.107 2.1 334 9.8 101590 42
2010-04-07 12:27 51°31.803 2°52.114 0.8 329 9.9 101590 42
2010-04-07 12:28 51°31.804 2°52.113 2.3 337 9.9 101590 43
2010-04-07 12:29 51°31.794 2°52.094 2 348 9.9 101590 42
2010-04-07 12:30 51°31.795 2°52.081 1.7 353 9.8 101590 42
2010-04-07 12:31 51°31.797 2°52.067 1.9 1 9.7 101590 42
2010-04-07 12:32 51°31.79 2°52.051 3.6 355 9.6 101590 43
2010-04-07 12:33 51°31.697 2°52.016 6.8 344 9.5 101590 43
2010-04-07 12:34 51°31.528 2°51.982 8 344 9.5 101580 42
2010-04-07 12:35 51°31.339 2°51.959 7.4 343 9.6 101590 43
2010-04-07 12:36 51°31.151 2°51.952 7.3 343 9.6 101590 42
2010-04-07 12:37 51°30.958 2°51.944 6.8 343 9.6 101590 43
2010-04-07 12:38 51°30.762 2°51.93 6.7 342 9.6 101590 42
2010-04-07 12:39 51°30.572 2°51.919 7.5 342 9.6 101590 43
2010-04-07 12:40 51°30.399 2°51.917 3.7 353 9.7 101590 41
2010-04-07 12:41 51°30.351 2°52.01 -999 43 9.6 101600 42
2010-04-07 12:42 51°30.396 2°52.103 -999 248 9.6 101600 42
2010-04-07 12:43 51°30.482 2°52.209 -999 23 9.8 101600 42
2010-04-07 12:44 51°30.535 2°52.318 -999 23 9.9 101600 42
2010-04-07 12:45 51°30.545 2°52.436 -999 11 10 101600 42
2010-04-07 12:46 51°30.525 2°52.525 -999 16 9.9 101600 42
2010-04-07 12:47 51°30.493 2°52.574 -999 12 9.8 101600 42
2010-04-07 12:48 51°30.46 2°52.602 -999 17 9.7 101600 42
2010-04-07 12:49 51°30.443 2°52.65 -999 29 9.7 101600 42
2010-04-07 12:50 51°30.441 2°52.754 -999 6 9.7 101600 42
2010-04-07 12:51 51°30.449 2°52.869 -999 34 9.7 101600 42
2010-04-07 12:52 51°30.456 2°52.953 -999 31 9.8 101600 43
2010-04-07 12:53 51°30.445 2°53.034 -999 29 9.8 101600 42
2010-04-07 12:54 51°30.409 2°53.137 0.7 3 9.8 101610 42
2010-04-07 12:55 51°30.333 2°53.213 3.1 358 9.7 101600 43
2010-04-07 12:56 51°30.233 2°53.22 5.2 351 9.6 101600 42
2010-04-07 12:57 51°30.134 2°53.231 4 355 9.5 101600 42
2010-04-07 12:58 51°30.041 2°53.288 3.4 -999 9.5 101600 41
2010-04-07 12:59 51°29.954 2°53.319 4.7 342 9.4 101600 41
2010-04-07 13:00 51°29.902 2°53.229 3.9 334 9.5 101610 43
2010-04-07 13:01 51°29.865 2°53.156 3.6 342 9.5 101610 42
2010-04-07 13:02 51°29.797 2°53.13 4.7 350 9.5 101610 41
2010-04-07 13:03 51°29.619 2°53.135 6.9 344 9.4 101600 43
2010-04-07 13:04 51°29.387 2°53.142 6.8 343 9.4 101600 42
2010-04-07 13:05 51°29.16 2°53.171 6.8 345 9.3 101600 42
2010-04-07 13:06 51°28.93 2°53.21 7.3 345 9.2 101600 43
2010-04-07 13:07 51°28.698 2°53.24 7.4 343 9.2 101600 43
2010-04-07 13:08 51°28.465 2°53.255 7.4 346 9.1 101600 44
2010-04-07 13:09 51°28.232 2°53.274 7.3 344 9.1 101600 44
2010-04-07 13:10 51°27.999 2°53.292 7.5 346 9.1 101610 45
2010-04-07 13:11 51°27.763 2°53.309 7.2 346 9.1 101610 44
2010-04-07 13:12 51°27.528 2°53.328 7 346 9.1 101600 43
2010-04-07 13:13 51°27.293 2°53.345 6.9 349 9 101610 45
2010-04-07 13:14 51°27.057 2°53.363 7 348 9 101600 45
2010-04-07 13:15 51°26.823 2°53.38 6.8 347 8.9 101600 45
2010-04-07 13:16 51°26.587 2°53.397 6.9 349 8.9 101600 44
2010-04-07 13:17 51°26.357 2°53.414 6.8 350 8.9 101600 44
2010-04-07 13:18 51°26.125 2°53.431 7.1 351 9 101600 44
2010-04-07 13:19 51°25.89 2°53.452 6.9 350 9 101600 44
2010-04-07 13:20 51°25.662 2°53.468 6.8 349 9 101600 44
2010-04-07 13:21 51°25.425 2°53.481 7.1 348 9 101610 44
2010-04-07 13:22 51°25.195 2°53.496 7 349 9 101620 44
2010-04-07 13:23 51°24.962 2°53.516 6.7 347 9 101620 45
2010-04-07 13:24 51°24.734 2°53.529 7 348 9 101620 44
2010-04-07 13:25 51°24.502 2°53.539 6.7 347 9 101620 45
2010-04-07 13:26 51°24.271 2°53.551 6.8 347 9 101630 44
2010-04-07 13:27 51°24.038 2°53.562 7.6 347 9 101640 44
2010-04-07 13:28 51°23.805 2°53.57 7.3 349 9 101640 45
2010-04-07 13:29 51°23.569 2°53.58 7 348 9 101630 45
2010-04-07 13:30 51°23.333 2°53.582 7.5 347 9 101630 45
2010-04-07 13:31 51°23.099 2°53.5 7.6 346 9 101630 45
2010-04-07 13:32 51°22.867 2°53.409 7.4 347 9 101630 45
2010-04-07 13:33 51°22.638 2°53.322 8.5 348 9 101630 44
2010-04-07 13:34 51°22.411 2°53.218 7.9 348 9 101630 45
2010-04-07 13:35 51°22.182 2°53.133 8 349 9 101620 44
2010-04-07 13:36 51°21.952 2°53.05 7.6 350 9 101630 45
2010-04-07 13:37 51°21.723 2°52.964 7.9 348 9 101630 44
2010-04-07 13:38 51°21.497 2°52.85 7.9 349 8.9 101630 45
2010-04-07 13:39 51°21.271 2°52.736 8 348 8.9 101640 45
2010-04-07 13:40 51°21.042 2°52.64 7.1 350 8.9 101640 45
2010-04-07 13:41 51°20.811 2°52.559 7.5 350 9 101640 45
2010-04-07 13:42 51°20.578 2°52.496 7.5 350 8.9 101640 45
2010-04-07 13:43 51°20.346 2°52.43 7.8 351 9 101640 45
2010-04-07 13:44 51°20.115 2°52.364 7.6 352 9 101640 45
2010-04-07 13:45 51°19.88 2°52.31 8 353 9 101640 45
2010-04-07 13:46 51°19.647 2°52.286 7.2 353 9.1 101640 44
2010-04-07 13:47 51°19.415 2°52.259 7.1 353 9.1 101640 45
2010-04-07 13:48 51°19.181 2°52.234 6.9 354 9.1 101640 44
2010-04-07 13:49 51°18.949 2°52.212 6.8 353 9.1 101640 45
2010-04-07 13:50 51°18.716 2°52.206 6.4 353 9.2 101640 44
2010-04-07 13:51 51°18.483 2°52.202 6.4 355 9.2 101640 45
2010-04-07 13:52 51°18.247 2°52.201 6.6 352 9.2 101640 44
2010-04-07 13:53 51°18.013 2°52.2 6.5 354 9.2 101640 44
2010-04-07 13:54 51°17.777 2°52.204 6.8 356 9.2 101640 45
2010-04-07 13:55 51°17.553 2°52.295 5 359 9.2 101650 44
2010-04-07 13:56 51°17.341 2°52.438 5 356 9.1 101640 44
2010-04-07 13:57 51°17.124 2°52.579 5.4 356 9.1 101650 45
2010-04-07 13:58 51°16.915 2°52.715 5.1 357 9.1 101650 44
2010-04-07 13:59 51°16.699 2°52.854 5.1 359 9.1 101650 43
2010-04-07 14:00 51°16.485 2°52.975 5.6 355 9.1 101650 45
2010-04-07 14:01 51°16.266 2°53.097 5.4 356 9.1 101650 45
2010-04-07 14:02 51°16.058 2°53.224 4.7 356 9.1 101650 46
2010-04-07 14:03 51°15.861 2°53.395 3.7 357 9.1 101650 43
2010-04-07 14:04 51°15.672 2°53.586 3.5 354 9.1 101660 44
2010-04-07 14:05 51°15.487 2°53.786 3.8 352 9.2 101660 44
2010-04-07 14:06 51°15.306 2°53.994 3.9 352 9.2 101670 44
2010-04-07 14:07 51°15.131 2°54.213 4.4 350 9.2 101670 43
2010-04-07 14:08 51°14.958 2°54.436 4.7 345 9.3 101670 44
2010-04-07 14:09 51°14.781 2°54.662 4.8 348 9.3 101670 44
2010-04-07 14:10 51°14.603 2°54.881 4.6 349 9.4 101670 43
2010-04-07 14:11 51°14.433 2°55.093 3.7 346 9.4 101670 44
2010-04-07 14:12 51°14.275 2°55.271 4.2 340 9.4 101670 43
2010-04-07 14:13 51°14.132 2°55.414 2 2 9.7 101670 43
2010-04-07 14:14 51°14.016 2°55.494 2.6 355 9.8 101670 44
2010-04-07 14:15 51°13.911 2°55.564 -999 330 10 101670 44
2010-04-07 14:16 51°13.822 2°55.625 -999 330 10.4 101670 43
2010-04-07 14:17 51°13.74 2°55.695 0.4 3 10.7 101670 43
2010-04-07 14:18 51°13.695 2°55.797 0.9 42 11 101670 42
2010-04-07 14:19 51°13.677 2°55.885 1.7 20 11.2 101670 41
2010-04-07 14:20 51°13.665 2°55.954 2.7 44 11.3 101670 40